This demonstration page uses our WeatherBlox Daily Observations layout. Learn more.

Left ArrowRight Arrow

Hourly Observations for April 13, 2021

Temp ( °F °C ) Dew Point ( °F °C ) Humidity (%) Winds ( mph kmh ) Pressure ( in mb ) Visibility ( mi km ) Precip ( " mm )
12:53 am 00:53 Clear 37 2.8 25 -3.9 62 62 NNW 8 13 30.23 1024 10 16 0.00 0.00
1:53 am 01:53 Clear 33 0.6 24 -4.4 70 70 WNW 6 9 30.24 1024 10 16 0.00 0.00
2:53 am 02:53 Clear 34 1.1 24 -4.4 67 67 WNW 7 11 30.23 1024 10 16 0.00 0.00
3:53 am 03:53 Clear 34 1.1 23 -5 64 64 WSW 8 13 30.24 1024 10 16 0.00 0.00
4:53 am 04:53 Clear 32 0 23 -5 69 69 WNW 8 13 30.25 1024 10 16 0.00 0.00
5:53 am 05:53 Clear 31 -0.6 23 -5 72 72 WNW 6 9 30.25 1024 10 16 0.00 0.00
6:53 am 06:53 Clear 30 -1.1 23 -5 75 75 W 7 11 30.28 1025 10 16 0.00 0.00
7:53 am 07:53 Sunny 33 0.6 24 -4.4 70 70 WNW 8 13 30.30 1026 10 16 0.00 0.00
8:53 am 08:53 Sunny 38 3.3 23 -5 55 55 NW 14 22 30.31 1026 10 16 0.00 0.00
9:53 am 09:53 Sunny 41 5 24 -4.4 51 51 NNW 16 26 30.31 1026 10 16 0.00 0.00
10:53 am 10:53 Sunny 44 6.7 25 -3.9 47 47 NNW 15 24 30.31 1027 10 16 0.00 0.00
11:53 am 11:53 Sunny 46 7.8 25 -3.9 44 44 WNW 16 26 30.31 1027 10 16 0.00 0.00
12:53 pm 12:53 Sunny 48 8.9 24 -4.4 39 39 W 14 22 30.29 1026 10 16 0.00 0.00
1:53 pm 13:53 Sunny 50 10 25 -3.9 38 38 NW 9 15 30.26 1025 10 16 0.00 0.00
2:53 pm 14:53 Sunny 52 11.1 24 -4.4 34 34 WNW 13 20 30.24 1024 10 16 0.00 0.00
3:53 pm 15:53 Sunny 54 12.2 25 -3.9 33 33 WNW 17 28 30.21 1023 10 16 0.00 0.00
4:53 pm 16:53 Sunny 55 12.8 25 -3.9 31 31 NW 10 17 30.19 1022 10 16 0.00 0.00
5:53 pm 17:53 Sunny 55 12.8 24 -4.4 30 30 WNW 13 20 30.18 1022 10 16 0.00 0.00
6:53 pm 18:53 Mostly Cloudy 55 12.8 24 -4.4 30 30 NW 10 17 30.17 1022 10 16 0.00 0.00
7:53 pm 19:53 Sunny 51 10.6 28 -2.2 41 41 NNW 6 9 30.18 1022 10 16 0.00 0.00
8:53 pm 20:53 Clear 45 7.2 28 -2.2 52 52 Calm 30.19 1022 8 13 0.00 0.00
9:53 pm 21:53 Clear 43 6.1 28 -2.2 56 56 NNE 8 13 30.22 1023 10 16 0.00 0.00
10:53 pm 22:53 Clear 42 5.6 26 -3.3 53 53 NNE 10 17 30.25 1025 10 16 0.00 0.00
11:53 pm 23:53 Clear 39 3.9 26 -3.3 60 60 NNE 8 13 30.28 1026 10 16 0.00 0.00

Powered by AerisWeather